Regional Weather Roundup
Issued by NWS

Home | Current Version | Previous Version | Graphics & Text | Print | Product List | Glossary Off
Versions: 1 2 3 4 5 6 7 8 9 10 11 12 13 14 15 16 17 18 19 20 21 22 23 24 25 26 27 28 29 30 31 32 33 34 35 36 37 38 39 40 41 42 43 44 45 46 47 48 49 50

000
ASUS43 KDMX 270507
RWRIA

WEATHER ROUNDUP FOR IOWA
NATIONAL WEATHER SERVICE DES MOINES IA
1200 AM CDT WED MAY 27 2015

NOTE: "FAIR" INDICATES FEW OR NO CLOUDS BELOW 12,000 FEET WITH NO
SIGNIFICANT WEATHER AND/OR OBSTRUCTIONS TO VISIBILITY.

* - THESE STATIONS ARE NOT NWS STATIONS...THUS NOT UNDER NWS
QUALITY CONTROL.  THEY ALSO DO NOT REPORT WEATHER SUCH
AS PRECIPITATION OR FOG.

IAZ001>003-012>014-020>022-031>034-043>046-270600-
   NORTHWEST IOWA

CITY           SKY/WX    TMP DP  RH WIND       PRES   REMARKS
CARROLL *      CLOUDY    59  57  94 W7        29.89S
CHEROKEE *     MOCLDY    55  55 100 SW3       29.89S
DENISON *      CLOUDY    57  57 100 CALM      29.90R
LE MARS *      CLEAR     57  55  94 S3        29.92R
ORANGE CITY *  CLEAR     55  54  94 W5        29.91R
SHELDON *      CLEAR     57  57 100 SW7       29.89R
SIOUX CITY     PTCLDY    58  54  86 CALM      29.91S
SPENCER        CLOUDY    58  56  93 W5        29.89R
STORM LAKE *   PTCLDY    55  55 100 W7        29.90S
$$

IAZ055>058-069>071-079>083-090>094-270600-
   SOUTHWEST IOWA

CITY           SKY/WX    TMP DP  RH WIND       PRES   REMARKS
ATLANTIC *     CLOUDY    61  55  82 W8        29.92S
AUDUBON *      MOCLDY    57  54  88 W5        29.92R
COUNCIL BLFS * CLEAR     59  59 100 NE3       29.94R
CRESTON *      CLEAR     59  59 100 W7        29.91S
HARLAN  *      CLEAR     57  57 100 W8        29.95S
LAMONI         CLEAR     63  58  83 SW7       29.92S
RED OAK *      MOCLDY    61  57  88 SW6       29.92S
SHENANDOAH *   CLEAR     61  57  88 SW6       29.94R
$$

IAZ047>049-059>061-072>074-084-270600-
   CENTRAL IOWA

CITY           SKY/WX    TMP DP  RH WIND       PRES   REMARKS
AMES           LGT RAIN  61  59  93 NW8       29.88R
ANKENY *       CLOUDY    63  61  94 W6        29.88R
CHARITON *       N/A     61  59  94 SW6       29.90S
DES MOINES     CLOUDY    62  58  86 W8        29.88S
GRINNELL*      CLOUDY    61  59  94 W10       29.87S
KNOXVILLE *    CLEAR     61  57  88 W9        29.88R FOG
MARSHALLTOWN   CLOUDY    61  60  97 W7        29.86R
PELLA *        MOCLDY    62  62 100 W6        29.89R
PERRY *        MOCLDY    61  57  88 W7        29.89S
$$

IAZ004>006-015-016-023>025-035-036-270600-
   NORTH CENTRAL IOWA

CITY           SKY/WX    TMP DP  RH WIND       PRES   REMARKS
ALGONA *       CLOUDY    59  57  94 NW3       29.88R
CLARION *      CLOUDY    59 N/A N/A W6        29.88R
ESTHERVILLE    CLOUDY    56  55  97 NW6       29.87S
FORT DODGE *   CLOUDY    59  54  82 CALM      29.89R
MASON CITY     CLOUDY    57  56  96 W10       29.87R
FOREST CITY *  CLOUDY    55  55 100 NW3       29.86S
IOWA FALLS *   CLOUDY    61  57  88 W8        29.87S
$$

IAZ007>011-017>019-026>030-037>042-050>054-066-270600-
   NORTHEAST IOWA

CITY           SKY/WX    TMP DP  RH WIND       PRES   REMARKS
CEDAR RAPIDS   PTCLDY    62  61  96 SW9       29.84R
CHARLES CITY * CLOUDY    59  59 100 NW13G20   29.85R
CLINTON *      MOCLDY    63  57  82 SW9       29.87R
DECORAH *      CLOUDY    59  59 100 CALM      29.81R
DUBUQUE        MOCLDY    60  58  92 SW5       29.83R
MONTICELLO *   CLOUDY    63  63 100 CALM      29.83S
OELWEIN *      CLOUDY    59  59 100 W6        29.84R
WATERLOO       CLOUDY    62  59  90 W6        29.83R
$$

IAZ064-065-067-068-078-270600-
   EAST CENTRAL IOWA

CITY           SKY/WX    TMP DP  RH WIND       PRES   REMARKS
DAVENPORT      MOCLDY    64  60  87 SW8       29.86R
IOWA CITY      CLEAR     63  60  90 SW8       29.87R
MT. PLEASANT * CLEAR     64  59  82 SW8       29.89R
MUSCATINE *    PTCLDY    66  61  82 SW12      29.86R
QUAD CITIES    PTCLDY    67  61  81 SW10      29.85R
$$

IAZ062-063-075>077-085>089-095>099-270600-
   SOUTHEAST IOWA

CITY           SKY/WX    TMP DP  RH WIND       PRES   REMARKS
BURLINGTON     CLEAR     64  62  93 W7        29.89R
FAIRFIELD *    CLEAR     63  59  88 W8        29.88S
FORT MADISON * PTCLDY    64  61  88 SW6       29.91R
KEOKUK *       PTCLDY    68  61  77 W8        29.89S
OSKALOOSA *      N/A     63  59  88 W10       29.89R
CENTERVILLE *  CLEAR     59  59 100 SW6       29.92S
OTTUMWA        CLEAR     61  60  97 SW7       29.89R
WASHINGTON *   CLEAR     63  61  94 SW9       29.88S
$$

ABBREVIATIONS USED IN REMARKS
   TC - TEMPERATURES IN CELSIUS
  WCI - WIND CHILL INDEX
   HX - HEAT INDEX
  VSB - VISIBILITY
$$



USA.gov is the U.S. government's official web portal to all federal, state and local government web resources and services.